Location: A O Calhoun Middle School
(33.2198°N, 97.1397°W)
Time: 15:02:51
(UTC+00:00)

Cosmos 1812 - Pass Details

Date: 08 December 2021
Orbit: 513 x 519 km, 82.5° (Epoch: 25 January)

Event Time Altitude Azimuth Distance (km) Brightness Sun altitude
Rises 23:48:38 0° 188° (S) 2,626 6.8 -6.0°
Reaches altitude 10° 23:50:45 10° 189° (S) 1,744 5.8 -6.4°
Maximum altitude 23:54:35 79° 275° (W) 533 2.9 -7.1°
Drops below altitude 10° 23:58:27 10° 4° (N) 1,758 5.1 -7.9°
Sets 00:00:35 0° 5° (N) 2,650 6.0 -8.3°
